Regional Weather Roundup
Issued by NWS Newport/Morehead, NC

Current Version | Previous Version | Graphics & Text | Print | Product List | Glossary Off
Versions: 1 2 3 4 5 6 7 8 9 10 11 12 13 14 15 16 17 18 19 20 21 22 23 24 25 26 27 28 29 30 31 32 33 34 35 36 37 38 39 40 41 42 43 44 45 46 47 48 49 50

000
ASUS42 KMHX 301013
RWRMHX
WEATHER ROUNDUP FOR EASTERN NORTH CAROLINA
NATIONAL WEATHER SERVICE NEWPORT/MOREHEAD CITY NC
600 AM EDT SAT APR 30 2016

NOTE: "FAIR" INDICATES FEW OR NO CLOUDS BELOW 12,000 FEET
WITH NO SIGNIFICANT WEATHER AND/OR OBSTRUCTIONS TO VISIBILITY

NCZ015>017-031-032-045>047-102-103-301100-
NORTH COAST

CITY           SKY/WX    TMP DP  RH WIND       PRES   REMARKS
EDENTON        CLOUDY    56  56  99 N6        30.11R
ELIZABETH CITY CLOUDY    55  53  93 N9        30.09S
KITTY HAWK     CLOUDY    54  53  98 N3        30.07R FOG
MANTEO         NOT AVBL

$$

NCZ045>047-081-094-103-104-301100-
CENTRAL COAST

CITY           SKY/WX    TMP DP  RH WIND       PRES   REMARKS
FRISCO         CLOUDY    58  55  90 NE10G20   30.06R
SWANQUARTER    NOT AVBL

$$

NCZ095-097-098-100-101-301100-
SOUTHERN COAST

CITY           SKY/WX    TMP DP  RH WIND       PRES   REMARKS
BEAUFORT       CLOUDY    60  57  89 N7        30.07R
CEDAR ISLAND   NOT AVBL
JACKSONVILLE   CLOUDY    62  58  86 NE9       30.06R
PINEY ISLAND   NOT AVBL
WILMINGTON     MOCLDY    61  59  93 NE8       30.04R


$$

NCZ011>013-027>030-043-044-078>080-089-090>093-098-301100-
COASTAL PLAIN

CITY           SKY/WX    TMP DP  RH WIND       PRES   REMARKS
AHOSKIE        CLOUDY    55  53  91 CALM      30.11S
CLINTON        CLOUDY    60  60  99 E3        30.07R
ELIZABETHTOWN  CLOUDY    62  62 100 CALM      30.05S
GOLDSBORO      CLOUDY    59  59 100 NE7       30.07R
GREENVILLE     CLOUDY    57  55  94 NE5       30.11R
HAVELOCK       NOT AVBL
KENANSVILLE    CLOUDY    59  58  97 CALM      30.08R FOG
KINSTON        CLOUDY    59  58  96 NE9       30.09R
NEW BERN       CLOUDY    59  56  89 NE9       30.10R
RICHLANDS      CLOUDY    60  59  96 NE10      30.07S
ROCKY MOUNT    CLOUDY    57  55  93 NE8       30.10R
WASHINGTON     CLOUDY    56  54  92 N5        30.10R
WHITEVILLE     CLOUDY    63  62  96 NE5       30.03R

$$

AMZ130-135-150-152-154-156-158-170-250-252-270-ANZ085-086-088-633-658-670-301100-
MARINE OBSERVATIONS

STATION/POSITION TIME  TEMP    WIND        PRES    WAVE   SWELL
                       AIR SEA DIR/SP/G            HT/PER HT/PER
                 (UTC) (F)     (DEG/KT/KT) (MB)    (FT/S) (FT/S)
CHESAPEAKE LIGHT 1000   52      20/ 13/ 14 1020.4
64 E VA BEACH    0950   52 53   10/ 17/ 21 1017.7    6/ 9   5/ 9
DUCK             0900   54 66   20/ 18/ 20 1017.9
2 E DUCK         0911      58                N/A     4/11   2/11
OREGON INLET     0900   55 63   10/ 12/ 19 1017.6
13E OREGON INLT  1000      55                N/A     5/ 8   3/ 8
HATTERAS CG      0900   60 70   10/ 19/ 23 1017.2
DIAMOND BUOY     0950   60 74   20/ 17/ 21 1017.6    5/ 8   2/ 8
CAPE LOOKOUT     1000   61      20/ 12/ 14 1017.8
BEAUFORT LAB     0900   62 67   20/  9/ 11 1016.9
30 SE NEW RVR IN 0925      67                N/A     3/ 9
27 SE WRIGHTSVLE 0908   69 69   40/ 10/ 14 1016.2
5 SE WRIGHTSVLE  0908   67 68   60/ 10/ 14 1017.5
225 S CAPE HAT   0950   71 71   60/ 10/ 12 1016.0    3/ 9   2/ 9
41 SE CHARLESTON 0950   73 72  110/  6/  8 1015.0    2/ 9   2/ 9

$$




USA.gov is the U.S. government's official web portal to all federal, state and local government web resources and services.